EIN27T EIDW-EICK

Flight info

Callsign EIN27T
Flight time N/A
Altitude 24000
Route OLONO4E OLONO DCT TISMO TISMO1R
Aircraft A320/M-SDE3FGHIRWY/LB1

Departure

Time 2026-04-30 14:50
Airport Dublin Airport (EIDW)

Arrival

Time N/A
Airport Cork International Airport (EICK)
Time Latitude Longitude Altitude Speed Heading
2026-04-30 14:35 53.42423 -6.26330 217 ft 0 kts 185°
2026-04-30 14:41 53.42426 -6.26329 211 ft 2 kts 185°
2026-04-30 14:41 53.42444 -6.26327 216 ft 3 kts 185°
2026-04-30 14:41 53.42465 -6.26324 215 ft 3 kts 185°
2026-04-30 14:42 53.42482 -6.26321 212 ft 3 kts 184°
2026-04-30 14:42 53.42500 -6.26322 212 ft 3 kts 155°
2026-04-30 14:42 53.42515 -6.26341 219 ft 3 kts 118°
2026-04-30 14:42 53.42522 -6.26371 214 ft 2 kts 97°
2026-04-30 14:43 53.42522 -6.26380 214 ft 0 kts 95°
2026-04-30 14:44 53.42521 -6.26351 216 ft 5 kts 94°
2026-04-30 14:44 53.42517 -6.26267 211 ft 10 kts 95°
2026-04-30 14:45 53.42510 -6.26133 211 ft 13 kts 95°
2026-04-30 14:45 53.42500 -6.25955 211 ft 17 kts 98°
2026-04-30 14:45 53.42427 -6.25891 221 ft 15 kts 213°
2026-04-30 14:45 53.42345 -6.26000 211 ft 15 kts 219°
2026-04-30 14:46 53.42283 -6.26136 214 ft 15 kts 243°
2026-04-30 14:46 53.42268 -6.26302 211 ft 14 kts 274°
2026-04-30 14:46 53.42279 -6.26471 220 ft 15 kts 276°
2026-04-30 14:46 53.42287 -6.26643 211 ft 15 kts 273°
2026-04-30 14:47 53.42292 -6.26819 211 ft 15 kts 273°
2026-04-30 14:47 53.42303 -6.26999 211 ft 15 kts 274°
2026-04-30 14:47 53.42302 -6.27015 211 ft 1 kts 262°
2026-04-30 14:47 53.42303 -6.27047 211 ft 4 kts 278°
2026-04-30 14:48 53.42310 -6.27105 218 ft 5 kts 281°
2026-04-30 14:48 53.42318 -6.27240 211 ft 21 kts 275°
2026-04-30 14:48 53.42338 -6.27586 214 ft 38 kts 276°
2026-04-30 14:48 53.42356 -6.27919 214 ft 21 kts 275°
2026-04-30 14:49 53.42359 -6.28088 211 ft 16 kts 254°
2026-04-30 14:49 53.42270 -6.28054 212 ft 23 kts 117°
2026-04-30 14:49 53.42174 -6.27819 211 ft 18 kts 126°
2026-04-30 14:49 53.42172 -6.27729 210 ft 13 kts 92°
2026-04-30 14:50 53.42055 -6.25488 496 ft 151 kts 94°
2026-04-30 14:50 53.41962 -6.23610 1278 ft 165 kts 96°
2026-04-30 14:51 53.41717 -6.19438 2934 ft 207 kts 101°
2026-04-30 14:51 53.41561 -6.16876 3720 ft 233 kts 102°
2026-04-30 14:51 53.41227 -6.11093 5934 ft 258 kts 99°
2026-04-30 14:52 53.41063 -6.08067 7146 ft 263 kts 99°
2026-04-30 14:52 53.40312 -6.02065 9569 ft 265 kts 123°
2026-04-30 14:52 53.39123 -5.99734 10716 ft 265 kts 143°
2026-04-30 14:53 53.35656 -5.98069 13038 ft 273 kts 183°
2026-04-30 14:53 53.33753 -5.98872 13862 ft 293 kts 192°
2026-04-30 14:54 53.29937 -6.02075 15463 ft 322 kts 211°
2026-04-30 14:54 53.26384 -6.06786 17352 ft 330 kts 212°
2026-04-30 14:55 53.22764 -6.11654 19099 ft 338 kts 212°
2026-04-30 14:55 53.20922 -6.14124 19917 ft 342 kts 212°
2026-04-30 14:55 53.17145 -6.19159 21471 ft 352 kts 213°
2026-04-30 14:56 53.13270 -6.24295 23026 ft 360 kts 213°
2026-04-30 14:56 53.09307 -6.29537 24014 ft 366 kts 213°
2026-04-30 14:57 53.07314 -6.32168 24095 ft 361 kts 213°
2026-04-30 14:57 53.03373 -6.37359 24113 ft 381 kts 213°
2026-04-30 14:58 52.99043 -6.43016 24110 ft 401 kts 214°
2026-04-30 14:58 52.96856 -6.45893 24109 ft 402 kts 214°
2026-04-30 14:58 52.92502 -6.51634 24103 ft 402 kts 214°
2026-04-30 14:59 52.88106 -6.57398 24100 ft 402 kts 214°
2026-04-30 15:00 52.81497 -6.66008 24112 ft 403 kts 213°
2026-04-30 15:00 52.77086 -6.71722 24102 ft 402 kts 213°
2026-04-30 15:01 52.72732 -6.77429 24092 ft 404 kts 217°
2026-04-30 15:01 52.71433 -6.79757 24090 ft 410 kts 226°
2026-04-30 15:01 52.67384 -6.88440 24081 ft 413 kts 227°
2026-04-30 15:02 52.65597 -6.92267 24098 ft 431 kts 227°
2026-04-30 15:02 52.63740 -6.96223 24099 ft 439 kts 227°
2026-04-30 15:03 52.57977 -7.08488 24095 ft 466 kts 227°
2026-04-30 15:03 52.53990 -7.16950 24100 ft 470 kts 227°
2026-04-30 15:04 52.49992 -7.25413 23668 ft 468 kts 227°
2026-04-30 15:04 52.44076 -7.37886 22853 ft 439 kts 226°
2026-04-30 15:05 52.38844 -7.48917 22260 ft 381 kts 225°
2026-04-30 15:06 52.35686 -7.55506 21466 ft 363 kts 225°
2026-04-30 15:06 52.32565 -7.61958 20372 ft 356 kts 225°
2026-04-30 15:07 52.29523 -7.68255 19352 ft 350 kts 225°
2026-04-30 15:07 52.27030 -7.73415 18529 ft 345 kts 225°
2026-04-30 15:08 52.24076 -7.79519 17484 ft 339 kts 225°
2026-04-30 15:08 52.19478 -7.89016 16603 ft 310 kts 224°
2026-04-30 15:09 52.17240 -7.93599 16028 ft 308 kts 224°
2026-04-30 15:09 52.14518 -7.99173 14805 ft 319 kts 227°
2026-04-30 15:10 52.12817 -8.06007 13740 ft 335 kts 252°
2026-04-30 15:11 52.10871 -8.20653 11459 ft 312 kts 251°
2026-04-30 15:11 52.09981 -8.27273 10388 ft 288 kts 251°
2026-04-30 15:12 52.08725 -8.36354 8709 ft 263 kts 250°
2026-04-30 15:13 52.07932 -8.42049 7606 ft 251 kts 252°
2026-04-30 15:14 52.09316 -8.53082 5410 ft 261 kts 289°
2026-04-30 15:14 52.09737 -8.61178 3722 ft 240 kts 224°
2026-04-30 15:16 52.02962 -8.60330 3056 ft 178 kts 159°
2026-04-30 15:17 51.98647 -8.57735 3058 ft 158 kts 160°
2026-04-30 15:18 51.93578 -8.54719 2344 ft 145 kts 157°
2026-04-30 15:19 51.91003 -8.53190 1800 ft 119 kts 156°